This is the latest recevied weather packets stored in our database for station/object KM8V-8. If no packets are shown the sender has not sent any weather packets the latest 10 day(s).
| Time | Temp. | Humidity | Pressure | Rain* | Wind** | Luminosity | Snow |
|---|---|---|---|---|---|---|---|
| 1777979118 | 17.78° C | 66% | 1003.7 hPa | 0 mm | - | 27 W/m² | - |
| 1777978818 | 17.78° C | 66% | 1003.7 hPa | 0 mm | - | 25 W/m² | - |
| 1777978519 | 17.78° C | 66% | 1003.6 hPa | 0 mm | - | 20 W/m² | - |
| 1777978219 | 17.78° C | 66% | 1003.5 hPa | 0 mm | - | 16 W/m² | - |
| 1777977919 | 17.78° C | 65% | 1003.5 hPa | 0 mm | - | 13 W/m² | - |
| 1777977619 | 17.78° C | 65% | 1003.5 hPa | 0 mm | - | 9 W/m² | - |
| 1777977319 | 18.33° C | 65% | 1003.4 hPa | 0 mm | - | 7 W/m² | - |
| 1777977019 | 18.33° C | 65% | 1003.5 hPa | 0 mm | - | 4 W/m² | - |
| 1777976719 | 18.33° C | 66% | 1003.5 hPa | 0 mm | - | 3 W/m² | - |
| 1777976419 | 18.33° C | 65% | 1003.4 hPa | 0 mm | - | 1 W/m² | - |
| 1777976120 | 18.33° C | 65% | 1003.2 hPa | 0 mm | - | 1 W/m² | - |
| 1777975816 | 18.33° C | 65% | 1003.2 hPa | 0 mm | - | 0 W/m² | - |
| 1777975519 | 18.33° C | 65% | 1003.2 hPa | 0 mm | - | 0 W/m² | - |
| 1777975216 | 18.89° C | 64% | 1002.9 hPa | 0 mm | - | 0 W/m² | - |
| 1777974916 | 18.89° C | 64% | 1002.8 hPa | 0 mm | - | 0 W/m² | - |
| 1777974620 | 18.89° C | 64% | 1002.7 hPa | 0 mm | - | 0 W/m² | - |
| 1777974320 | 18.89° C | 64% | 1002.6 hPa | 0 mm | - | 0 W/m² | - |
| 1777974020 | 18.89° C | 64% | 1002.5 hPa | 0 mm | - | 0 W/m² | - |
| 1777973720 | 18.89° C | 64% | 1002.5 hPa | 0 mm | - | 0 W/m² | - |
| 1777973417 | 18.89° C | 64% | 1002.4 hPa | 0 mm | - | 0 W/m² | - |
| 1777973117 | 18.89° C | 64% | 1002.5 hPa | 0 mm | - | 0 W/m² | - |
| 1777972817 | 18.89° C | 63% | 1002.4 hPa | 0 mm | - | 0 W/m² | - |
| 1777972520 | 18.89° C | 63% | 1002.3 hPa | 0 mm | - | 0 W/m² | - |
| 1777972218 | 19.44° C | 63% | 1002.2 hPa | 0 mm | - | 0 W/m² | - |
| 1777971917 | 19.44° C | 62% | 1002.2 hPa | 0 mm | - | 0 W/m² | - |
* Rain latest hour (hover to see other rain measurements)
** Current wind speed in m/s (hover to see current wind gust speed)